Weather History for KOAJ - January, 2014

Change the Weather History Date:

Friday, January 17, 2014

  Actual Average Record
Temperature  
Mean Temperature 42 °F -  
Max Temperature 57 °F 50 °F 69 °F (2006)
Min Temperature 26 °F 30 °F 10 °F (2009)
Degree Days  
Heating Degree Days 24    
Moisture  
Dew Point 30 °F    
Average Humidity 65    
Maximum Humidity 93    
Minimum Humidity 33    
Precipitation  
Precipitation 0.00 in - - ()
Sea Level Pressure  
Sea Level Pressure 30.01 in    
Wind  
Wind Speed 5 mph (South)    
Max Wind Speed 18 mph    
Max Gust Speed 25 mph    
Visibility 10 miles    
Events      
Averages and records for this station are not official NWS values.
T = Trace of Precipitation, MM = Missing Value Source: NWS Daily Summary

Daily Weather History Graph

Daily Weather History Graph

Search for Another Location

Airport or City:

Trip Planner

Search our weather history database for the weather conditions in past years. The results will help you decide how hot, cold, wet, or windy it might be!

Date:

Astronomy

Jan. 17, 2014 Rise Set
Actual Time 7:17 AM EST 5:24 PM EST
Civil Twilight 6:49 AM EST 5:51 PM EST
Nautical Twilight 6:18 AM EST 6:22 PM EST
Astronomical Twilight 5:48 AM EST 6:53 PM EST
Moon 7:03 PM EST (1/17) 7:48 AM EST (1/17)
Length of Visible Light 11h 02m
Length of Day
10h 07m
Full, 98% of the Moon is Illuminated
Jan 17
Full
Jan 24
Last Quarter
Jan 30
New
Feb 6
First Quarter
Feb 14
Full

Hourly Weather History & Observations

Time (EST) Temp. Windchill Dew Point Humidity Pressure Visibility Wind Dir Wind Speed Gust Speed Precip Events Conditions
12:15 AM 28.4 °F - 24.8 °F 86% 30.07 in 10.0 mi Calm Calm - N/A   Clear
12:35 AM 28.4 °F - 24.8 °F 86% 30.07 in 4.0 mi Calm Calm - N/A   Clear
12:55 AM 28.4 °F - 26.6 °F 93% 30.06 in 7.0 mi Calm Calm - N/A   Clear
1:15 AM 28.4 °F - 24.8 °F 86% 30.06 in 5.0 mi Calm Calm - N/A   Clear
1:35 AM 28.4 °F - 24.8 °F 86% 30.06 in 5.0 mi Calm Calm - N/A   Clear
1:55 AM 28.4 °F - 24.8 °F 86% 30.07 in 8.0 mi Calm Calm - N/A   Clear
2:15 AM 28.4 °F 24.6 °F 24.8 °F 86% 30.07 in 9.0 mi SSW 3.5 mph - N/A   Clear
2:35 AM 28.4 °F 24.6 °F 24.8 °F 86% 30.07 in 10.0 mi SSW 3.5 mph - N/A   Clear
2:55 AM 28.4 °F 24.6 °F 24.8 °F 86% 30.07 in 6.0 mi SSW 3.5 mph - N/A   Clear
3:15 AM 28.4 °F 21.2 °F 24.8 °F 86% 30.07 in 10.0 mi SSW 6.9 mph - N/A   Clear
3:35 AM 28.4 °F 22.2 °F 24.8 °F 86% 30.07 in 10.0 mi SW 5.8 mph - N/A   Clear
3:55 AM 30.2 °F 25.4 °F 24.8 °F 80% 30.07 in 10.0 mi SW 4.6 mph - N/A   Clear
4:15 AM 30.2 °F 25.4 °F 24.8 °F 80% 30.06 in 10.0 mi SSW 4.6 mph - N/A   Clear
4:35 AM 28.4 °F 23.3 °F 24.8 °F 86% 30.06 in 10.0 mi SSW 4.6 mph - N/A   Clear
4:55 AM 28.4 °F 23.3 °F 23.0 °F 80% 30.06 in 10.0 mi SSW 4.6 mph - N/A   Clear
5:15 AM 28.4 °F 24.6 °F 24.8 °F 86% 30.06 in 10.0 mi South 3.5 mph - N/A   Clear
5:35 AM 28.4 °F 24.6 °F 24.8 °F 86% 30.06 in 10.0 mi South 3.5 mph - N/A   Clear
5:55 AM 28.4 °F 24.6 °F 24.8 °F 86% 30.06 in 10.0 mi SSW 3.5 mph - N/A   Clear
6:15 AM 28.4 °F 24.6 °F 24.8 °F 86% 30.07 in 10.0 mi SSW 3.5 mph - N/A   Clear
6:35 AM 28.4 °F 24.6 °F 23.0 °F 80% 30.08 in 10.0 mi SSW 3.5 mph - N/A   Clear
6:55 AM 28.4 °F - 23.0 °F 80% 30.08 in 10.0 mi Calm Calm - N/A   Clear
7:15 AM 26.6 °F - 23.0 °F 86% 30.08 in 10.0 mi Calm Calm - N/A   Clear
7:35 AM 28.4 °F - 23.0 °F 80% 30.08 in 10.0 mi Calm Calm - N/A   Clear
7:55 AM 28.4 °F - 24.8 °F 86% 30.08 in 10.0 mi Calm Calm - N/A   Clear
8:15 AM 30.2 °F 25.4 °F 26.6 °F 86% 30.08 in 10.0 mi South 4.6 mph - N/A   Clear
8:35 AM 35.6 °F 30.7 °F 28.4 °F 75% 30.08 in 10.0 mi South 5.8 mph - N/A   Clear
8:55 AM 37.4 °F 32.8 °F 28.4 °F 70% 30.10 in 10.0 mi SSW 5.8 mph - N/A   Clear
9:15 AM 39.2 °F 34.2 °F 30.2 °F 70% 30.10 in 10.0 mi SSW 6.9 mph - N/A   Clear
9:35 AM 42.8 °F 38.0 °F 28.4 °F 57% 30.10 in 10.0 mi SSW 8.1 mph - N/A   Clear
9:55 AM 44.6 °F 40.7 °F 26.6 °F 49% 30.10 in 10.0 mi South 6.9 mph - N/A   Clear
10:15 AM 46.4 °F 41.9 °F 28.4 °F 50% 30.10 in 10.0 mi South 9.2 mph - N/A   Clear
10:35 AM 46.4 °F 41.9 °F 26.6 °F 46% 30.10 in 10.0 mi South 9.2 mph - N/A   Clear
10:55 AM 48.2 °F - 26.6 °F 43% 30.09 in 10.0 mi South 9.2 mph - N/A   Clear
11:15 AM 50.0 °F - 24.8 °F 37% 30.08 in 10.0 mi South 12.7 mph 17.3 mph N/A   Clear
11:35 AM 51.8 °F - 26.6 °F 38% 30.07 in 10.0 mi South 9.2 mph - N/A   Clear
11:55 AM 51.8 °F - 26.6 °F 38% 30.06 in 10.0 mi South 11.5 mph 17.3 mph N/A   Clear
12:15 PM 53.6 °F - 26.6 °F 35% 30.05 in 10.0 mi SSW 11.5 mph - N/A   Clear
12:35 PM 53.6 °F - 26.6 °F 35% 30.03 in 10.0 mi SSW 10.4 mph 18.4 mph N/A   Clear
12:55 PM 55.4 °F - 26.6 °F 33% 30.01 in 10.0 mi South 11.5 mph 21.9 mph N/A   Clear
1:15 PM 55.4 °F - 26.6 °F 33% 30.00 in 10.0 mi South 11.5 mph 20.7 mph N/A   Clear
1:35 PM 55.4 °F - 26.6 °F 33% 29.99 in 10.0 mi South 15.0 mph 19.6 mph N/A   Clear
1:55 PM 55.4 °F - 28.4 °F 36% 29.98 in 10.0 mi South 11.5 mph - N/A   Clear
2:15 PM 57.2 °F - 28.4 °F 33% 29.97 in 10.0 mi South 15.0 mph 21.9 mph N/A   Clear
2:35 PM 57.2 °F - 30.2 °F 36% 29.96 in 10.0 mi South 16.1 mph 19.6 mph N/A   Clear
2:55 PM 57.2 °F - 30.2 °F 36% 29.96 in 10.0 mi South 16.1 mph 24.2 mph N/A   Clear
3:15 PM 57.2 °F - 28.4 °F 33% 29.95 in 10.0 mi SSE 16.1 mph - N/A   Clear
3:35 PM 57.2 °F - 30.2 °F 36% 29.95 in 10.0 mi South 18.4 mph 25.3 mph N/A   Clear
3:55 PM 57.2 °F - 33.8 °F 41% 29.95 in 10.0 mi SSE 11.5 mph 18.4 mph N/A   Clear
4:15 PM 53.6 °F - 32.0 °F 44% 29.94 in 10.0 mi SSE 8.1 mph - N/A   Clear
4:35 PM 53.6 °F - 33.8 °F 47% 29.95 in 10.0 mi SSE 10.4 mph - N/A   Clear
4:55 PM 51.8 °F - 33.8 °F 50% 29.95 in 10.0 mi SSE 10.4 mph - N/A   Clear
5:15 PM 51.8 °F - 35.6 °F 54% 29.94 in 10.0 mi SSE 9.2 mph - N/A   Clear
5:35 PM 50.0 °F - 35.6 °F 58% 29.94 in 10.0 mi SSE 10.4 mph - N/A   Clear
5:55 PM 50.0 °F - 37.4 °F 62% 29.94 in 10.0 mi SSE 12.7 mph - N/A   Clear
6:15 PM 50.0 °F - 37.4 °F 62% 29.94 in 10.0 mi SSE 10.4 mph 17.3 mph N/A   Clear
6:35 PM 50.0 °F - 37.4 °F 62% 29.94 in 10.0 mi South 9.2 mph - N/A   Clear
6:55 PM 50.0 °F - 39.2 °F 66% 29.93 in 10.0 mi South 11.5 mph - N/A   Clear
7:15 PM 50.0 °F - 39.2 °F 66% 29.93 in 10.0 mi South 11.5 mph - N/A   Clear
7:35 PM 51.8 °F - 39.2 °F 62% 29.93 in 10.0 mi South 11.5 mph - N/A   Clear
7:55 PM 51.8 °F - 39.2 °F 62% 29.93 in 10.0 mi South 9.2 mph - N/A   Clear
8:15 PM 51.8 °F - 39.2 °F 62% 29.93 in 10.0 mi South 11.5 mph - N/A   Clear
8:35 PM 51.8 °F - 39.2 °F 62% 29.94 in 10.0 mi South 11.5 mph - N/A   Clear
8:55 PM 50.0 °F - 39.2 °F 66% 29.94 in 10.0 mi South 9.2 mph - N/A   Clear
9:15 PM 50.0 °F - 39.2 °F 66% 29.94 in 10.0 mi South 6.9 mph - N/A   Clear
9:35 PM 48.2 °F - 39.2 °F 71% 29.93 in 10.0 mi South 6.9 mph - N/A   Clear
9:55 PM 48.2 °F - 39.2 °F 71% 29.93 in 10.0 mi South 5.8 mph - N/A   Clear
10:15 PM 46.4 °F 44.3 °F 39.2 °F 76% 29.93 in 10.0 mi South 4.6 mph - N/A   Clear
10:35 PM 46.4 °F 44.3 °F 39.2 °F 76% 29.92 in 10.0 mi South 4.6 mph - N/A   Clear
10:55 PM 46.4 °F 45.2 °F 39.2 °F 76% 29.90 in 10.0 mi South 3.5 mph - N/A   Scattered Clouds
11:15 PM 46.4 °F 45.2 °F 39.2 °F 76% 29.89 in 10.0 mi South 3.5 mph - N/A   Scattered Clouds
11:35 PM 46.4 °F 45.2 °F 41.0 °F 81% 29.88 in 10.0 mi SW 3.5 mph - N/A   Mostly Cloudy
11:55 PM 46.4 °F - 39.2 °F 76% 29.87 in 10.0 mi Calm Calm - N/A   Overcast